Weather History for Millinocket, ME

Change the Weather History Date:

Wednesday, February 27, 2013

  Actual Average Record
Temperature  
Mean Temperature 28 °F 22 °F  
Max Temperature 43 °F 33 °F 52 °F (1903)
Min Temperature 13 °F 12 °F -24 °F (1963)
Degree Days  
Heating Degree Days 37 42  
Month to date heating degree days 1138 1264  
Since 1 July heating degree days 5517 6010  
Cooling Degree Days 0 0  
Month to date cooling degree days 0 0  
Year to date cooling degree days 0 0  
Moisture  
Dew Point 17 °F    
Average Humidity 63    
Maximum Humidity 92    
Minimum Humidity 34    
Precipitation  
Precipitation T in 0.10 in 1.80 in (1979)
Month to date precipitation 1.58 2.08  
Year to date precipitation 2.92 5.01  
Sea Level Pressure  
Sea Level Pressure 30.12 in    
Wind  
Wind Speed 5 mph (ESE)    
Max Wind Speed 17 mph    
Max Gust Speed 25 mph    
Visibility 8 miles    
Events Snow    
T = Trace of Precipitation, MM = Missing Value Source: NWS Daily Summary

Daily Weather History Graph

Daily Weather History Graph

Search for Another Location

Airport:

Trip Planner

Search our weather history database for the weather conditions in past years. The results will help you decide how hot, cold, wet, or windy it might be!

Date:

Astronomy

Feb. 27, 2013 Rise Set
Actual Time 6:16 AM EST 5:19 PM EST
Civil Twilight 5:46 AM EST 5:49 PM EST
Nautical Twilight 5:12 AM EST 6:23 PM EST
Astronomical Twilight 4:37 AM EST 6:57 PM EST
Moon 7:46 PM EST (2/27) 6:41 AM EST (2/27)
Length of Visible Light 12h 02m
Length of Day
11h 02m
Waning Gibbous, 96% of the Moon is Illuminated
Feb 27
Waning Gibbous
Mar 4
Last Quarter
Mar 11
New
Mar 19
First Quarter
Mar 27
Full

Hourly Weather History & Observations

Time (EST) Temp. Windchill Dew Point Humidity Pressure Visibility Wind Dir Wind Speed Gust Speed Precip Events Conditions
12:53 AM 21.0 °F - 18.0 °F 88% 30.31 in 6.0 mi Calm Calm - N/A   Clear
1:53 AM 19.0 °F - 16.0 °F 88% 30.30 in 6.0 mi Calm Calm - N/A   Clear
2:53 AM 18.0 °F - 15.1 °F 88% 30.27 in 5.0 mi Calm Calm - N/A   Clear
3:53 AM 17.1 °F - 14.0 °F 88% 30.27 in 6.0 mi Calm Calm - N/A   Clear
5:53 AM 12.9 °F - 10.0 °F 88% 30.28 in 9.0 mi Calm Calm - N/A   Clear
6:53 AM 14.0 °F - 10.9 °F 88% 30.28 in 4.0 mi Calm Calm - N/A   Clear
7:53 AM 19.0 °F - 15.1 °F 85% 30.27 in 6.0 mi Calm Calm - N/A   Clear
8:53 AM 26.1 °F 19.4 °F 19.0 °F 75% 30.24 in 10.0 mi East 5.8 mph - N/A   Clear
10:53 AM 37.0 °F 31.0 °F 23.0 °F 57% 30.17 in 10.0 mi East 8.1 mph - N/A   Clear
11:53 AM 39.0 °F 34.8 °F 19.9 °F 46% 30.13 in 10.0 mi East 5.8 mph - N/A   Clear
12:53 PM 41.0 °F 34.3 °F 17.1 °F 38% 30.11 in 10.0 mi ESE 11.5 mph - N/A   Clear
1:53 PM 42.1 °F 35.7 °F 17.1 °F 37% 30.08 in 10.0 mi East 11.5 mph 16.1 mph N/A   Clear
2:53 PM 42.1 °F 37.7 °F 17.1 °F 37% 30.07 in 10.0 mi ESE 6.9 mph 16.1 mph N/A   Clear
3:53 PM 41.0 °F 35.8 °F 16.0 °F 36% 30.05 in 10.0 mi East 8.1 mph 16.1 mph N/A   Clear
4:53 PM 39.9 °F 35.1 °F 17.1 °F 40% 30.04 in 10.0 mi SE 6.9 mph - N/A   Clear
5:53 PM 37.9 °F 33.5 °F 18.0 °F 45% 30.03 in 10.0 mi ESE 5.8 mph - N/A   Clear
6:53 PM 36.0 °F 33.3 °F 19.0 °F 50% 30.02 in 10.0 mi ESE 3.5 mph - N/A   Mostly Cloudy
7:53 PM 35.1 °F 31.0 °F 19.0 °F 52% 30.00 in 10.0 mi East 4.6 mph - N/A   Overcast
8:53 PM 36.0 °F 29.6 °F 18.0 °F 48% 29.99 in 10.0 mi East 8.1 mph - N/A   Overcast
9:53 PM 35.1 °F 27.9 °F 14.0 °F 42% 29.96 in 10.0 mi East 9.2 mph - N/A   Overcast
10:53 PM 35.1 °F 27.4 °F 12.9 °F 40% 29.94 in 10.0 mi East 10.4 mph - N/A   Overcast
11:53 PM 33.1 °F 23.9 °F 18.0 °F 54% 29.90 in 6.0 mi East 12.7 mph 25.3 mph 0.00 in Snow Light Snow